Погода в Камень-Рыболове

Россия / Приморский край     44°44′24″N   132°02′31″E
темп.,
°C
ветер,
м/с
пор.,
м/с
влажн.,
%
обл.,
%
осадки,
мм/ч
давл.,
гПа
погр.,
м
14 апреля, ср
ср1401:00−1зсз49430 0.0 1012724
04:00−2з484217 0.0 1011510
07:00−2зюз364511 0.0 1011281
10:00+3зюз373028 0.0 10111711
13:00+5з4828100 0.0 10092613
16:00+7з61026100 0.0 10072800
19:00+7зсз492899 0.0 10082064
22:00+4зюз3538100 0.0 1010117
15 апреля, чт
чт1501:00+2сз22455 0.0 101117
04:00+1зюз224588 0.0 101317
07:00+1юз344598 0.0 101360
10:00+6ююз69335 0.0 1012449
13:00+12ю582422 0.0 10111653
16:00+15ю572315 0.0 10081523
19:00+11ю8153952 0.0 1010413
22:00+8ююз71344100 0.0 1012446
16 апреля, пт
пт1601:00+7ю71555100 0.0 1012511
04:00+6ю8177124 0.0 1011630
07:00+6ю81684100 0.0 1010773
10:00+8ююв91775100 0.0 10081151
13:00+9ююв81662100 0.0 10061453
16:00+9ю71473100 0.3 10041233
19:00+8ююв9157383 0.4 10031032
22:00+7ю7128099 0.9 1002816
17 апреля, сб
сб1701:00+6ююз598799 0.1 1002511
04:00+5ююз51186100 0.2 1003318
07:00+4ююз41086100 0.0 1004255
10:00+8юз465159 0.0 1005666
13:00+11ю344058 0.0 10051869
16:00+10юз1340100 0.0 10021708
19:00+8с4661100 0.3 1006614
22:00+6ссз5877100 0.6 1008582
18 апреля, вс
вс1801:00+6ссз5885100 0.2 1008684
04:00+5ссз5990100 0.9 1008875
07:00+6ссз51179100 0.3 1009604
10:00+6ссз7137494 0.6 1010909
13:00+8ссз6966100 0.1 10091081
16:00+10с5957100 0.5 10081318
19:00+9с386110 0.8 1008825
22:00+7юз33684 0.1 101024